Home   Weather   Norway   Stavanger   Past weeks
Flag for Norway

Past Weather in Stavanger, Norway — Yesterday and Last 2 Weeks

Currently: 54 °F. Scattered clouds. (Weather station: Stavanger / Sola, Norway). See more current weather

Past Weather in Stavanger — Graph

°F

Stavanger Temperature Yesterday

Maximum temperature yesterday: 57 °F (at 3:50 pm)
Minimum temperature yesterday: 52 °F (at 9:50 am)
Average temperature yesterday: 54 °F

High & Low Weather Summary for the Past Weeks

 TemperatureHumidityPressure
High64 °F (Jun 15, 12:20 pm)94% (Jun 10, 12:50 am)30.09 "Hg (Jun 10, 12:50 am)
Low45 °F (Jun 5, 11:50 pm)45% (Jun 14, 1:50 pm)29.36 "Hg (Jun 9, 5:50 am)
Average53 °F75%29.71 "Hg
* Reported Jun 5 10:20 pm — Jun 20 10:20 pm, Stavanger. Weather by CustomWeather, © 2024

Note: Actual official high and low records may vary slightly from our data, if they occured in-between our weather recording intervals... More about our weather records

Stavanger Weather History for the Previous 24 Hours

Scroll right to see more
 ConditionsComfort  
Time TempWeatherWind HumidityBarometerVisibility
10:20 pm
Thu, Jun 20
55 °FScattered clouds.8 mph72%30.04 "HgN/A
9:50 pm55 °FScattered clouds.9 mph77%30.04 "HgN/A
9:20 pm55 °FSunny.9 mph72%30.04 "Hg10 mi
8:50 pm55 °FPassing clouds.10 mph72%30.04 "HgN/A
8:20 pm57 °FPassing clouds.9 mph67%30.07 "HgN/A
7:50 pm57 °FPassing clouds.12 mph67%30.07 "HgN/A
7:20 pm57 °FPassing clouds.12 mph67%30.07 "HgN/A
6:50 pm55 °FPassing clouds.12 mph72%30.07 "HgN/A
6:20 pm57 °FPassing clouds.13 mph63%30.07 "HgN/A
5:50 pm57 °FPassing clouds.12 mph67%30.07 "HgN/A
5:20 pm59 °FPassing clouds.12 mph68%30.07 "HgN/A
4:50 pm59 °FPassing clouds.10 mph63%30.07 "HgN/A
4:20 pm59 °FPassing clouds.8 mph55%30.07 "HgN/A
3:20 pm57 °FScattered clouds.8 mph63%30.07 "HgN/A
2:50 pm59 °FScattered clouds.9 mph63%30.09 "HgN/A
2:20 pm59 °FMostly cloudy.9 mph63%30.09 "HgN/A
1:20 pm59 °FPartly sunny.10 mph68%30.07 "HgN/A
12:50 pm57 °FPartly sunny.13 mph72%30.07 "HgN/A
12:20 pm57 °FMostly cloudy.13 mph72%30.07 "HgN/A
11:50 am57 °FPartly sunny.13 mph72%30.07 "HgN/A
10:50 am57 °FPartly sunny.12 mph82%30.04 "HgN/A
10:20 am55 °FPartly sunny.12 mph88%30.04 "HgN/A
9:50 am55 °FPartly sunny.12 mph82%30.04 "HgN/A
9:20 am55 °FBroken clouds.8 mph88%30.04 "HgN/A
8:50 am55 °FPartly sunny.8 mph88%30.04 "HgN/A
8:20 am55 °FPartly sunny.8 mph88%30.04 "HgN/A
7:50 am55 °FPartly sunny.9 mph88%30.04 "HgN/A
7:20 am55 °FPartly sunny.8 mph82%30.04 "HgN/A
6:50 am54 °FPartly sunny.7 mph88%30.04 "HgN/A
6:20 am52 °FPartly sunny.7 mph88%30.04 "HgN/A
5:50 am52 °FPartly sunny.7 mph88%30.04 "HgN/A
5:20 am52 °FBroken clouds.7 mph82%30.04 "HgN/A
4:20 am52 °FMostly cloudy.6 mph82%30.04 "HgN/A
3:50 am50 °FPassing clouds.5 mph88%30.07 "HgN/A
3:20 am50 °FOvercast.3 mph88%30.07 "HgN/A
2:50 am50 °FOvercast.3 mph88%30.07 "HgN/A
2:20 am50 °FOvercast.6 mph88%30.07 "HgN/A
1:50 am50 °FPassing clouds.6 mph88%30.07 "HgN/A
1:20 am50 °FPassing clouds.5 mph82%30.07 "HgN/A
12:50 am52 °FClear.3 mph77%30.07 "Hg10 mi
12:20 am52 °FClear.5 mph77%30.09 "Hg10 mi
11:20 pm
Wed, Jun 19
52 °FClear.9 mph77%30.07 "Hg10 mi
Weather by CustomWeather, © 2024

See weather overview